Location: Ammerl�gen
(47.2167°N, 9.6000°E)
Time: 07:34:43
(UTC+00:00)

RS-15 - Pass Details

Date: 10 December 2021
Orbit: 1882 x 2162 km, 64.8° (Epoch: 17 January)

Event Time Altitude Azimuth Distance (km) Brightness Sun altitude
Exits shadow 01:24:03 43° 61° (ENE) 2,712 8.8 -54.5°
Drops below altitude 10° 01:31:40 10° 41° (NE) 4,633 10.4 -53.4°
Sets 01:35:12 0° 38° (NE) 5,662 11.0 -52.8°
